STARLINK-33828 (63493 NORAD) Tracking and Keplerian Element Data

This shows tracking and keplerian element data for the satellite.

Feedback or suggestion? Click here.




ElementValue
Catalog63493
NameSTARLINK-33828
Epoch Orbit4054
Epoch Day354.16280394
Epoch Year2025
RAAN151.4852
Inclination53.1579
Eccentricity0.0001178
Argument of Perigee86.93
Mean Anonmoly273.1836
Mean Motion15.30241179
Decay Rate0.00021405
L11 63493U 25071A 25354.16280394 .00021405 00000+0 73181-3 0 9996
L22 63493 53.1579 151.4852 0001178 86.9300 273.1836 15.30241179 40542



Live tracking and technical data element details for STARLINK-33828 (NORAD 63493). STARLINK-33828 can be tracked NOW for your location showing map with azimuth and elevation plus other details from your city location.







IsCatalogInMostPopularTable: catalog: 63493, numindb: 2
Update: records affected: 1



GetName: 63493 STARLINK-33828

Hit Count: updated at: Sun, 08 Feb 2026 09:19:32 GMT